GW4545 Weather Reports


time (UTC)temp
F
wind
direction
speed
knots
gust
knots
rain 1hr
in
rain 24hr
in
rain mn
in
humidity
%
barometer
mb
20260905013049 62 271 2.6 5.2 0.00 0.03 0.01 81 1015.3
20260905011550 62 173 0.0 1.7 0.00 0.03 0.01 76 1015.4
20260905010107 62 0 0.0 0.9 0.00 0.03 0.01 77 1015.4
20260905004607 62 0 0.0 3.5 0.00 0.04 0.01 78 1015.5
20260905003056 62 126 0.0 1.7 0.00 0.04 0.01 77 1015.3
20260905001559 63 198 0.0 3.5 0.00 0.04 0.01 78 1015.3
20260904234550 63 0 0.9 4.3 0.00 0.06 0.01 78 1014.8
20260904233058 62 69 0.9 4.3 0.00 0.06 0.01 79 1014.9
20260904231559 62 0 0.0 4.3 0.00 0.06 0.01 81 1014.7
20260904230109 62 223 2.6 6.1 0.00 0.06 0.01 81 1014.7
20260904224549 63 172 1.7 3.5 0.00 0.09 0.01 77 1014.5
20260904223058 63 0 0.0 1.7 0.00 0.09 0.01 77 1014.4
20260904221557 64 136 0.9 5.2 0.00 0.09 0.01 73 1014.5
20260904214548 63 17 0.9 3.5 0.00 0.15 0.01 78 1014.4
20260904213058 62 0 0.0 2.6 0.00 0.15 0.01 79 1014.3
20260904211554 62 191 0.0 5.2 0.00 0.15 0.01 76 1014.1
20260904210048 63 235 0.9 6.1 0.00 0.15 0.01 73 1014.1
20260904204549 63 0 0.0 3.5 0.00 0.20 0.01 77 1014.0
20260904203101 62 254 0.9 3.5 0.00 0.20 0.01 80 1014.1
20260904201550 61 232 0.9 2.6 0.00 0.20 0.01 85 1014.1
20260904200055 60 119 0.0 2.6 0.00 0.20 0.01 85 1014.3
20260904194555 61 0 0.0 2.6 0.00 0.25 0.01 84 1014.3
20260904193052 60 165 0.0 4.3 0.00 0.25 0.01 83 1014.4
20260904191556 60 250 0.9 3.5 0.00 0.25 0.01 83 1014.3
20260904190058 59 111 0.0 2.6 0.00 0.25 0.01 85 1014.6
20260904184555 58 0 0.9 2.6 0.00 0.27 0.01 85 1014.5
20260904183107 58 321 0.9 3.5 0.00 0.27 0.01 89 1014.5
20260904181559 57 360 0.9 2.6 0.00 0.27 0.01 90 1014.5
20260904180059 56 0 0.9 2.6 0.00 0.27 0.01 91 1014.3
20260904174550 56 11 0.9 2.6 0.00 0.27 0.01 94 1014.2
20260904173101 55 0 0.0 2.6 0.01 0.27 0.01 95 1014.0
20260904171610 54 0 0.9 1.7 0.01 0.27 0.01 96 1013.9
20260904170105 54 348 0.0 1.7 0.01 0.27 0.01 96 1014.0
20260904164600 54 0 0.0 1.7 0.01 0.29 0.01 97 1013.9
20260904163057 54 0 0.0 1.7 0.00 0.28 0.00 96 1013.7
20260904161552 53 0 0.0 0.9 0.00 0.28 0.00 96 1013.7
20260904160052 53 0 0.0 0.0 0.00 0.28 0.00 96 1013.7
20260904154559 53 0 0.0 0.0 0.00 0.33 0.00 96 1013.6
20260904153109 53 0 0.0 1.7 0.00 0.33 0.00 96 1013.6
20260904151554 53 0 0.0 0.9 0.00 0.33 0.00 96 1013.3
20260904144603 53 0 0.0 0.9 0.00 0.39 0.00 96 1012.9
20260904143055 53 0 0.0 1.7 0.00 0.39 0.00 96 1012.8
20260904141552 53 234 0.9 1.7 0.00 0.39 0.00 96 1012.6
20260904140051 53 0 0.0 0.9 0.00 0.39 0.00 96 1012.4
20260904134601 53 0 0.0 1.7 0.00 0.46 0.00 96 1012.2
20260904133053 52 0 0.0 0.9 0.00 0.46 0.00 96 1012.2
20260904131601 52 88 0.0 0.9 0.00 0.46 0.00 96 1012.2
20260904130048 52 0 0.0 0.0 0.00 0.46 0.00 96 1012.0
20260904124551 52 0 0.0 0.0 0.00 0.52 0.00 96 1012.0
20260904123049 52 0 0.0 0.0 0.00 0.52 0.00 96 1011.9
20260904121552 52 0 0.0 0.0 0.00 0.52 0.00 96 1011.8
20260904120057 52 0 0.0 0.0 0.00 0.52 0.00 96 1011.7
20260904114557 52 0 0.0 0.9 0.00 0.56 0.00 96 1011.7
20260904113053 52 0 0.0 0.0 0.00 0.56 0.00 96 1011.5
20260904111601 52 0 0.0 1.7 0.00 0.56 0.00 96 1011.5
20260904110100 52 0 0.0 2.6 0.00 0.56 0.00 96 1011.4
20260904104558 51 0 0.0 0.0 0.00 0.58 0.00 96 1011.2
20260904103056 51 238 0.9 2.6 0.00 0.58 0.00 96 1011.2
20260904101553 51 246 0.0 1.7 0.00 0.58 0.00 95 1011.1
20260904100107 51 268 0.9 1.7 0.00 0.58 0.00 95 1011.0
20260904094603 52 0 0.0 0.9 0.00 0.58 0.00 95 1011.1
20260904093051 52 0 0.0 2.6 0.00 0.58 0.00 95 1011.0
20260904091559 52 244 0.9 2.6 0.00 0.58 0.00 95 1011.1
20260904090057 53 0 0.0 0.9 0.00 0.58 0.00 94 1011.0
20260904084552 53 0 0.0 1.7 0.00 0.60 0.00 94 1010.9
20260904083104 53 0 0.0 0.9 0.00 0.60 0.00 95 1010.9
20260904081556 53 0 0.0 1.7 0.00 0.60 0.00 95 1010.8
20260904080051 54 0 0.0 1.7 0.00 0.60 0.00 95 1010.9
20260904074551 53 0 0.0 0.0 0.00 0.60 0.00 95 1010.8
20260904073051 54 270 0.0 0.9 0.00 0.60 0.00 93 1010.8
20260904071554 54 262 0.9 2.6 0.00 0.60 0.00 94 1010.8
20260904064553 54 0 0.0 0.0 0.00 0.60 0.60 94 1010.8
20260904063105 54 0 0.0 0.9 0.00 0.60 0.60 94 1010.8
20260904061550 54 0 0.0 2.6 0.01 0.60 0.60 94 1010.9
20260904054628 55 238 1.7 2.6 0.01 0.60 0.60 94 1011.0
20260904053053 55 224 0.0 1.7 0.01 0.60 0.60 93 1010.9
20260904051554 55 0 0.0 1.7 0.00 0.58 0.58 93 1011.1
20260904050050 55 224 0.0 0.9 0.00 0.58 0.58 93 1011.2
20260904044557 55 0 0.0 0.9 0.00 0.58 0.58 92 1011.2
20260904043103 55 123 0.0 1.7 0.00 0.58 0.58 91 1011.0
20260904041604 55 0 0.0 0.9 0.00 0.58 0.58 92 1011.1
20260904034551 56 0 0.0 0.9 0.00 0.58 0.58 90 1010.9
20260904033051 56 0 0.0 0.0 0.00 0.58 0.58 89 1010.6
20260904031605 56 0 0.0 0.9 0.00 0.58 0.58 90 1010.4
20260904030054 56 0 0.0 1.7 0.00 0.58 0.58 88 1010.3
20260904024558 57 0 0.0 0.0 0.01 0.58 0.58 87 1010.5
20260904023106 57 0 0.0 2.6 0.01 0.58 0.58 84 1010.4
20260904021558 58 0 0.0 0.0 0.01 0.58 0.58 83 1010.3
20260904020101 58 0 0.0 1.7 0.01 0.58 0.58 82 1010.4
20260904014617 59 0 0.0 1.7 0.00 0.58 0.58 81 1010.4